Regional Weather Roundup
Issued by NWS Charleston, WV

Home | Current Version | Previous Version | Text Only | Print | Product List | Glossary On
Versions: 1 2 3 4 5 6 7 8 9 10 11 12 13 14 15 16 17 18 19 20 21 22 23 24 25 26 27 28 29 30 31 32 33 34 35 36 37 38 39 40 41 42 43 44 45 46 47 48 49 50
000
ASUS41 KRLX 072210
RWRRLX
West Virginia Regional Weather Roundup
National Weather Service Charleston WV
600 PM EDT TUE JUL 07 2015

Note: "fair" indicates few or no clouds below 12,000 feet with no
significant weather and/or obstructions to visibility.

WVZ003-072300-
Northern Panhandle of West Virginia

CITY           SKY/WX    TMP DP  RH WIND       PRES   REMARKS
WHEELING       CLOUDY    82  70  66 SW16G22   29.95F
$$

WVZ009-072300-
Northwest West Virginia

CITY           SKY/WX    TMP DP  RH WIND       PRES   REMARKS
PARKERSBURG    LGT RAIN  79  68  69 SW16G32   30.01R
$$

WVZ006-072300-
Western West Virginia

CITY           SKY/WX    TMP DP  RH WIND       PRES   REMARKS
HUNTINGTON     CLOUDY    75  70  84 E3        30.00F
$$

WVZ015-072300-
West Central West Virginia

CITY           SKY/WX    TMP DP  RH WIND       PRES   REMARKS
CHARLESTON     CLOUDY    81  70  69 SE6       30.02R
$$

WVZ022-031-072300-
North Central West Virginia

CITY           SKY/WX    TMP DP  RH WIND       PRES   REMARKS
CLARKSBURG     PTSUNNY   83  70  64 SW12      30.00S
MORGANTOWN     MOSUNNY   85  67  54 S10G17    29.99F
$$

WVZ025-035-042-045-072300-
Southern West Virginia

CITY           SKY/WX    TMP DP  RH WIND       PRES   REMARKS
BECKLEY        PTSUNNY   79  63  57 SW12G18   30.14R
LOGAN            N/A     79  70  73 CALM      30.05R
BLUEFIELD      MOSUNNY   81  63  54 W9        30.17S
LEWISBURG      MOSUNNY   82  63  53 SW9       30.12S
$$

WVZ047-072300-
Northern Mountains of West Virginia

CITY           SKY/WX    TMP DP  RH WIND       PRES   REMARKS
ELKINS         MOSUNNY   83  63  50 SW9       30.06S
$$

WVZ052-072300-
Eastern Panhandle of West Virginia

CITY           SKY/WX    TMP DP  RH WIND       PRES   REMARKS
MARTINSBURG    SUNNY     86  69  56 S9        29.98F
PETERSBURG     MOSUNNY   85  64  48 S6        30.00S
$$


USA.gov is the U.S. government's official web portal to all federal, state and local government web resources and services.